Change the Weather History Date:

Tuesday, May 28, 2013

  Actual Average Record
Temperature  
Mean Temperature 84 °F 82 °F  
Max Temperature 93 °F 92 °F 108 °F (1927)
Min Temperature 75 °F 71 °F 58 °F (1907)
Degree Days  
Heating Degree Days 0 0  
Month to date heating degree days 4 0  
Since 1 July heating degree days 1013 1375  
Cooling Degree Days 19 16  
Month to date cooling degree days 419 379  
Year to date cooling degree days 845 708  
Growing Degree Days 34 (Base 50)    
Moisture  
Dew Point 67 °F    
Average Humidity 60    
Maximum Humidity 79    
Minimum Humidity 41    
Precipitation  
Precipitation 0.01 in 0.10 in 3.41 in (1925)
Month to date precipitation 1.45 2.49  
Year to date precipitation 3.20 6.88  
Sea Level Pressure  
Sea Level Pressure 29.71 in    
Wind  
Wind Speed 19 mph (SE)    
Max Wind Speed 45 mph    
Max Gust Speed 63 mph    
Visibility 10 miles    
Events Rain    
T = Trace of Precipitation, MM = Missing Value Source: NWS Daily Summary

Daily Weather History Graph

Daily Weather History Graph

Search for Another Location

Airport or City:

Trip Planner

Search our weather history database for the weather conditions in past years. The results will help you decide how hot, cold, wet, or windy it might be!

Date:

Astronomy

May. 28, 2013 Rise Set
Actual Time 6:45 AM CDT 8:36 PM CDT
Civil Twilight 6:18 AM CDT 9:03 PM CDT
Nautical Twilight 5:46 AM CDT 9:35 PM CDT
Astronomical Twilight 5:12 AM CDT 10:09 PM CDT
Moon No Moon Rise 10:28 AM CDT (5/28)
Length of Visible Light 14h 44m
Length of Day
13h 51m
Waning Gibbous, 82% of the Moon is Illuminated
May 28
Waning Gibbous
May 31
Last Quarter
Jun 8
New
Jun 16
First Quarter
Jun 23
Full

Hourly Weather History & Observations

Time (CDT) Temp. Heat Index Dew Point Humidity Pressure Visibility Wind Dir Wind Speed Gust Speed Precip Events Conditions
12:53 AM 82.0 °F 85.9 °F 70.0 °F 67% 29.75 in 10.0 mi ESE 13.8 mph 23.0 mph N/A   Clear
1:53 AM 81.0 °F 83.0 °F 66.0 °F 60% 29.74 in 10.0 mi SE 17.3 mph 31.1 mph N/A   Clear
2:53 AM 79.0 °F - 64.0 °F 60% 29.73 in 10.0 mi ESE 12.7 mph 25.3 mph N/A   Clear
3:53 AM 78.1 °F - 64.0 °F 62% 29.74 in 10.0 mi ESE 13.8 mph 18.4 mph N/A   Clear
4:53 AM 75.9 °F - 63.0 °F 64% 29.74 in 10.0 mi SE 16.1 mph 20.7 mph N/A   Clear
5:18 AM 75.2 °F - 64.4 °F 69% 29.79 in 10.0 mi ESE 16.1 mph 23.0 mph N/A   Mostly Cloudy
5:53 AM 75.9 °F - 64.9 °F 69% 29.75 in 10.0 mi ESE 13.8 mph 21.9 mph N/A   Overcast
6:53 AM 75.0 °F - 66.0 °F 73% 29.75 in 10.0 mi SE 15.0 mph 21.9 mph N/A   Overcast
7:53 AM 75.0 °F - 66.9 °F 76% 29.75 in 8.0 mi SE 12.7 mph - N/A   Overcast
8:53 AM 75.9 °F - 68.0 °F 76% 29.74 in 8.0 mi SE 16.1 mph 21.9 mph N/A   Overcast
9:53 AM 77.0 °F - 68.0 °F 74% 29.75 in 9.0 mi ESE 15.0 mph 24.2 mph N/A   Overcast
10:31 AM 78.8 °F - 68.0 °F 69% 29.80 in 9.0 mi SE 10.4 mph 24.2 mph N/A   Overcast
10:45 AM 78.8 °F - 68.0 °F 69% 29.80 in 9.0 mi SE 15.0 mph - N/A   Overcast
10:53 AM 79.0 °F - 68.0 °F 69% 29.75 in 9.0 mi SSE 18.4 mph - N/A   Overcast
11:14 AM 80.6 °F 83.2 °F 68.0 °F 65% 29.80 in 9.0 mi SSE 16.1 mph - N/A   Overcast
11:22 AM 80.6 °F 83.2 °F 68.0 °F 65% 29.80 in 9.0 mi SE 18.4 mph 24.2 mph N/A   Overcast
11:34 AM 80.6 °F 83.2 °F 68.0 °F 65% 29.79 in 9.0 mi SSE 18.4 mph 25.3 mph N/A   Overcast
11:41 AM 80.6 °F 83.2 °F 68.0 °F 65% 29.79 in 9.0 mi SSE 16.1 mph 25.3 mph N/A   Overcast
11:48 AM 80.6 °F 83.2 °F 68.0 °F 65% 29.79 in 9.0 mi SSE 19.6 mph 25.3 mph N/A   Overcast
11:53 AM 80.1 °F 82.7 °F 68.0 °F 67% 29.74 in 9.0 mi SE 16.1 mph 27.6 mph N/A   Overcast
12:53 PM 82.9 °F 85.4 °F 66.9 °F 58% 29.72 in 9.0 mi SE 20.7 mph 27.6 mph N/A   Overcast
1:53 PM 86.0 °F 89.4 °F 68.0 °F 55% 29.68 in 10.0 mi ESE 21.9 mph 33.4 mph N/A   Mostly Cloudy
2:53 PM 88.0 °F 90.7 °F 66.9 °F 49% 29.65 in 10.0 mi SE 20.7 mph 32.2 mph N/A   Scattered Clouds
3:53 PM 91.0 °F 94.3 °F 66.9 °F 45% 29.62 in 10.0 mi SE 18.4 mph 32.2 mph N/A   Clear
4:53 PM 91.9 °F 94.5 °F 66.0 °F 42% 29.60 in 10.0 mi SSE 21.9 mph 28.8 mph N/A   Clear
5:53 PM 91.9 °F 94.1 °F 64.9 °F 41% 29.58 in 10.0 mi SE 18.4 mph 26.5 mph N/A   Clear
6:53 PM 91.9 °F 94.5 °F 66.0 °F 42% 29.56 in 10.0 mi SE 16.1 mph - N/A   Partly Cloudy
7:53 PM 91.9 °F 93.3 °F 64.0 °F 39% 29.57 in 10.0 mi SE 17.3 mph 24.2 mph N/A   Scattered Clouds
8:53 PM 90.0 °F 91.3 °F 64.0 °F 42% 29.57 in 10.0 mi ESE 23.0 mph 33.4 mph N/A   Partly Cloudy
9:53 PM 88.0 °F 90.3 °F 66.0 °F 48% 29.66 in 10.0 mi East 12.7 mph 24.2 mph N/A   Overcast
10:53 PM 84.9 °F 88.8 °F 69.1 °F 59% 29.68 in 10.0 mi East 21.9 mph 31.1 mph 0.00 in Rain Light Rain
11:53 PM 80.1 °F 83.8 °F 72.0 °F 76% 29.68 in 8.0 mi East 29.9 mph 42.6 mph 0.00 in Rain Light Rain